SCP
0 0 0 0 0 0 -0 -0 -0 -0 -0 -0 0 0 0 0 -0 -0 -0 0 -0 0 -0 -0 0 0 0 0 0 0 0 0 0 -0 0 -0 -0 -0 -0 -0 -0 0 -0 -0 -0
0 0 0 0 0 0 0 -0 -0 -0 -0 -0 0 0 0 0 0 0 -0 -0 -0 -0 -0 0 0 0 0 0 0 0 0 -0 0 0 -0 -0 -0 0 0 -0 -0 -0 -0 -0 -0
0 0 0 0 0 0 0 0 0 -0 -0 -0 0 0 0 0 0 -0 0 -0 -0 -0 0 0 0 0 0 0 0 0 0 -0 0 -0 -0 -0 -0 0 -0 -0 -0 -0 -0 -0 -0
-0 0 0 0 0 0 0 0 0 0 0 -0 -0 0 -0 0 -0 0 -0 -0 0 -0 0 0 0 0 0 0 -0 -0 0 0 -0 -0 0 -0 -0 0 -0 -0 -0 -0 -0 -0 -0
-0 -0 -0 0 0 0 0 0 0 0 0 0 -0 0 0 -0 0 -0 -0 -0 0 0 0 0 0 0 0 0 0 0 0 -0 0 0 0 0 0 -0 -0 -0 -0 -0 -0 -0 -0
0 -0 -0 -0 0 0 0 0 0 0 0 -0 -0 0 0 0 -0 -0 -0 -0 -0 0 0 0 0 0 0 0 0 -0 0 0 0 -0 -0 -0 0 -0 -0 -0 -0 -0 -0 -0 -0
0 0 0 -0 -0 0 0 0 0 0 -0 -0 -0 -0 0 -0 0 -0 -0 -0 -0 0 0 0 0 0 0 0 0 0 0 0 -0 -0 -0 -0 -0 -0 -0 -0 -0 -0 -0 -0 -0
0 0 0 0 -0 -0 0 0 0 0 -0 -0 -0 -0 0 0 0 0 0 -0 -0 0 0 0 0 0 0 -0 0 0 -0 -0 -0 0 0 -0 -0 -0 -0 -0 -0 -0 -0 -0 -0
0 0 0 0 0 -0 0 0 0 -0 -0 -0 -0 0 0 0 0 0 -0 -0 -0 0 0 0 0 0 0 0 -0 -0 -0 -0 0 0 0 0 -0 -0 -0 -0 -0 -0 -0 -0 0
0 0 0 0 0 0 -0 0 -0 -0 -0 -0 0 0 -0 0 0 0 0 0 -0 0 0 0 0 -0 -0 -0 -0 -0 -0 0 0 -0 0 0 0 -0 -0 -0 -0 -0 -0 -0 -0
0 0 0 0 0 0 -0 0 0 0 0 0 0 0 0 0 0 0 0 0 -0 0 -0 0 -0 -0 -0 0 0 0 -0 -0 0 0 0 0 0 -0 -0 -0 0 0 -0 -0 -0
0 0 0 0 0 0 0 0 0 0 0 0 0 0 0 0 0 0 0 0 -0 -0 -0 -0 -0 -0 0 0 -0 -0 0 0 0 0 0 0 0 0 0 0 -0 -0 -0 -0 -0
0 0 0 0 -0 0 0 0 0 0 0 0 0 0 0 0 0 0 0 0 0 0 -0 -0 -0 0 0 0 -0 -0 -0 0 0 0 0 0 0 0 0 0 -0 -0 0 0 -0
0 0 0 0 0 0 0 0 0 0 0 0 0 0 0 0 0 0 0 0 0 0 -0 0 0 0 0 0 -0 -0 0 0 0 0 0 0 0 0 0 -0 -0 -0 -0 -0 -0
0 0 0 0 0 0 0 0 0 0 0 -0 -0 0 0 0 0 0 0 0 0 0 0 -0 -0 0 0 0 0 -0 0 0 0 0 0 0 0 0 0 -0 0 -0 -0 -0 -0
0 0 0 0 0 0 0 0 0 0 0 0 -0 0 -0 0 0 0 0 0 -0 -0 0 0 0 0 -0 0 0 0 0 0 -0 -0 -0 0 0 0 0 0 0 0 -0 -0 -0
0 0 0 0 0 0 0 0 0 0 0 0 0 -0 0 0 0 0 0 0 0 0 0 0 -0 0 0 0 0 0 0 -0 0 0 -0 0 -0 0 0 0 0 -0 0 0 -0
0 0 0 0 0 0 0 0 0 0 0 0 -0 -0 0 -0 0 0 0 0 0 0 0 0 0 -0 -0 0 0 0 0 0 0 0 -0 -0 -0 0 0 0 0 0 0 0 0
0 0 0 0 0 0 0 0 0 -0 0 0 0 -0 0 0 0 0 0 0 0 0 0 0 0 0 0 0 0 0 0 0 0 0 0 0 0 0 0 0 0 -0 0 0 0
0 0 0 0 0 0 0 0 0 -0 0 0 0 0 -0 0 0 0 0 0 0 0 -0 -0 0 0 0 0 -0 0 0 0 0 -0 -0 0 0 0 0 0 0 0 0 0 0
0 0 0 0 0 0 0 0 0 -0 0 0 0 0 0 0 0 0 0 0 0 0 0 -0 -0 -0 0 0 0 0 0 0 0 0 0 0 0 0 0 0 0 0 0 0 -0
0 0 0 0 0 0 0 0 0 0 0 0 0 0 0 -0 0 0 0 0 0 0 0 -0 -0 -0 0 0 0 0 0 0 0 0 0 0 0 0 0 0 0 0 0 0 0
0 0 0 0 0 0 0 0 0 0 0 0 0 0 -0 0 0 0 0 0 0 -0 0 0 0 0 0 0 0 0 0 0 0 0 0 0 0 0 0 0 0 0 0 0 0
0 0 0 0 0 0 0 0 0 0 0 0 -0 -0 0 0 0 0 0 0 0 0 0 0 0 0 0 0 0 0 0 0 0 0 0 0 0 0 0 0 0 0 0 0 0
0 0 0 0 0 0 0 0 0 0 0 0 0 -0 0 0 0 0 0 -0 0 0 0 0 0 0 0 0 0 0 0 0 0 0 0 0 0 0 0 0 0 0 0 0 0
0 0 0 0 0 0 0 0 0 0 0 0 0 -0 0 0 -0 -0 0 0 0 0 0 0 0 0 0 0 0 0 0 0 0 0 0 0 0 0 0 0 0 0 0 0 0
0 0 0 0 0 0 0 0 0 0 0 0 0 0 0 0 0 0 0 0 0 0 0 0 0 0 0 0 0 0 0 0 0 0 0 0 0 0 0 0 0 0 0 0 0
Wind_Speed_500mb
38 40 41 42 43 42 39 42 42 42 42 45 48 49 47 43 39 43 49 36 22 24 31 24 24 31 28 40 37 18 4 8 28 31 9 45 39 42 60 66 34 28 69 59 63
39 40 41 42 43 43 41 40 43 45 46 45 46 46 44 41 41 53 46 33 34 30 25 26 24 28 50 41 57 17 9 9 41 23 31 40 30 18 22 55 58 65 58 58 68
39 40 42 42 42 44 44 41 42 46 47 45 41 40 34 31 37 32 12 35 39 33 30 24 33 54 54 60 47 29 22 44 26 37 54 32 12 8 26 28 67 72 66 58 63
41 41 42 44 43 43 45 43 42 44 47 44 41 37 31 21 7 10 8 28 31 29 26 31 32 50 25 26 15 20 38 46 38 74 56 20 27 10 46 22 67 69 65 53 50
43 43 43 44 44 44 43 46 42 43 47 42 43 36 28 17 45 9 8 22 29 34 34 36 42 47 25 17 11 17 20 51 60 64 59 51 22 15 23 40 64 63 56 52 45
45 45 44 44 46 44 44 45 46 44 48 42 40 34 20 16 5 19 11 26 35 37 37 40 41 42 49 36 14 18 28 41 54 57 54 45 25 21 16 40 60 59 54 50 47
45 45 46 45 46 46 44 44 47 46 47 41 32 29 24 47 5 21 19 31 37 36 36 37 38 43 50 20 25 17 17 26 27 57 41 66 24 19 48 50 48 50 49 47 46
45 46 46 47 47 46 44 43 49 48 48 37 23 22 22 1 18 25 13 16 39 30 31 29 33 48 50 40 10 11 15 12 19 27 37 31 21 26 44 44 45 43 46 45 47
48 45 47 46 48 49 44 43 50 50 50 27 13 19 28 7 33 28 30 29 35 34 41 39 44 47 35 11 7 11 11 26 10 13 15 13 29 40 51 49 46 47 47 46 42
48 49 46 46 46 50 44 43 51 39 16 11 16 13 36 30 38 38 32 39 36 35 41 45 37 8 10 4 13 14 10 28 21 20 16 21 18 34 56 54 49 50 50 49 41
51 50 49 44 43 47 44 44 19 9 21 25 23 34 64 27 34 39 40 44 47 44 17 37 6 13 24 23 24 20 21 18 12 20 13 16 34 36 51 49 43 45 52 53 46
54 54 51 45 41 41 38 31 40 32 45 54 61 69 72 54 32 41 48 48 41 17 17 13 18 26 33 35 21 20 21 25 25 26 17 20 33 33 27 37 62 52 55 58 55
51 55 54 48 42 30 27 26 45 46 27 72 74 66 68 54 40 45 53 57 17 19 23 21 20 37 40 34 24 23 15 29 24 25 19 20 8 4 12 38 49 63 62 59 62
52 50 53 53 27 18 30 33 25 28 7 22 24 56 62 62 23 49 57 50 17 29 28 22 31 41 40 35 21 15 12 12 24 40 18 21 11 10 26 25 33 57 66 63 70
51 48 45 44 47 36 33 33 20 21 9 15 23 22 53 56 28 39 61 61 27 21 18 27 33 37 39 32 16 16 17 13 13 9 11 23 10 24 27 23 15 39 64 69 81
51 47 45 37 48 26 16 15 11 4 16 15 28 25 35 39 41 31 63 59 46 24 27 24 45 30 30 25 22 13 5 10 14 3 1 14 15 11 28 34 38 44 67 71 81
57 48 47 46 43 15 29 15 2 11 16 12 31 41 40 19 37 37 41 37 32 21 22 25 40 32 34 16 18 9 8 5 5 3 12 16 13 18 42 39 43 46 68 73 91
61 53 46 45 34 27 5 2 13 24 47 33 36 18 34 33 32 38 34 33 37 32 12 18 25 37 29 19 21 16 18 11 11 8 15 20 12 9 42 63 68 65 79 68 82
64 51 47 29 20 27 10 11 13 26 35 38 38 30 23 39 22 36 29 37 36 39 28 19 26 26 24 11 20 20 11 18 9 10 7 8 11 13 35 31 43 63 58 59 67
63 55 41 19 28 31 7 14 19 45 46 42 43 41 41 39 38 40 37 41 37 42 36 26 14 28 19 25 24 22 15 5 6 4 10 10 4 9 16 18 26 26 49 69 85
41 23 34 35 43 21 10 15 27 55 54 39 49 53 46 14 36 27 39 37 46 42 46 38 15 28 22 17 18 4 9 7 13 11 10 5 7 10 19 19 22 23 39 55 91
15 8 31 44 13 14 16 16 41 40 56 47 46 43 42 15 17 23 32 38 58 43 44 45 11 23 28 16 25 17 17 18 11 8 3 11 9 18 22 19 29 31 39 32 30
28 20 31 35 10 17 20 39 50 39 42 46 48 38 30 16 15 20 21 36 58 47 45 29 26 20 12 17 25 30 18 17 13 8 8 7 5 4 15 14 37 37 44 41 36
15 8 19 36 38 22 27 33 37 53 44 54 47 23 27 16 20 23 30 27 56 47 77 35 14 17 14 18 21 21 27 17 17 10 12 13 14 11 13 11 28 34 27 31 36
11 9 20 10 14 32 28 29 45 43 44 40 30 16 31 26 26 19 26 14 32 59 39 28 16 15 16 14 7 18 12 17 16 16 15 14 19 22 22 15 24 25 15 16 31
13 13 21 35 32 25 25 30 38 44 33 24 36 26 37 13 9 12 21 12 11 8 32 14 13 9 3 5 10 12 29 29 33 25 14 16 14 25 51 48 28 30 27 16 10
20 23 17 22 14 17 20 45 30 38 36 40 31 10 15 14 21 24 38 37 19 6 9 18 12 9 9 2 12 12 9 11 16 29 31 25 17 12 18 17 27 27 16 5 12
Wind_Direction_500mb
342 341 342 343 342 342 341 337 336 336 331 323 314 308 302 298 292 284 271 259 235 239 260 274 255 257 254 246 226 181 127 121 174 240 319 104 123 138 128 138 159 198 143 148 149
338 338 337 338 338 338 338 336 334 334 332 327 319 311 299 297 292 278 269 247 219 226 249 263 266 268 250 243 223 152 248 141 181 149 106 100 94 90 108 114 111 121 136 146 150
335 334 333 334 335 334 334 333 332 332 333 329 324 324 309 302 304 288 268 216 213 220 237 248 261 279 276 272 260 176 212 117 150 122 110 108 118 197 81 121 138 137 144 150 152
330 331 331 330 331 332 330 330 330 329 331 327 321 325 312 295 266 6 228 182 204 209 230 232 254 269 267 273 242 82 94 111 129 114 112 123 132 114 138 122 137 141 149 155 160
326 326 327 327 328 328 327 325 326 325 327 325 318 316 306 271 248 293 17 185 195 205 216 221 252 261 261 289 128 103 103 104 110 119 127 134 117 115 126 107 137 144 151 157 163
324 323 323 324 325 325 324 323 321 321 324 322 316 310 285 256 289 234 242 213 208 208 215 220 244 260 271 285 105 117 127 123 123 114 107 97 118 100 172 138 138 147 158 163 166
321 322 320 320 321 322 321 320 316 318 320 318 311 306 265 248 247 216 259 225 209 212 216 228 254 273 281 303 117 156 116 123 103 118 118 112 98 107 132 136 143 154 164 170 171
321 321 320 318 319 318 318 317 311 313 314 308 302 299 266 111 219 225 228 216 195 207 230 244 262 269 280 299 148 136 131 123 142 121 150 116 141 136 142 148 156 166 174 178 176
321 320 319 318 317 316 316 316 308 310 308 286 278 284 269 275 204 195 211 214 194 204 228 250 264 270 291 293 249 159 198 129 131 168 149 109 144 155 166 166 167 181 178 170 168
321 319 318 318 318 314 315 315 307 310 309 281 214 289 249 220 203 206 205 204 205 218 235 242 261 233 284 275 204 189 220 152 151 201 166 128 155 164 173 172 182 187 167 165 173
320 318 317 317 319 315 315 324 324 322 313 258 275 223 291 278 202 205 201 205 204 221 211 233 219 239 242 247 253 201 183 127 221 209 139 152 151 170 178 173 180 175 168 170 176
319 317 316 316 316 310 304 300 299 298 305 287 277 261 268 263 218 194 193 202 208 206 203 227 217 241 245 250 228 240 156 181 223 182 125 168 162 176 154 176 178 184 181 182 185
318 316 316 315 316 300 276 314 330 310 285 283 258 257 252 250 205 188 199 194 194 212 212 215 214 236 244 256 240 245 177 208 166 178 154 125 161 127 224 195 202 184 186 194 186
316 316 317 317 313 269 281 319 317 352 301 264 221 229 239 239 195 194 200 204 197 207 221 218 235 228 240 251 228 245 270 283 161 148 176 178 196 203 206 238 201 179 183 192 180
314 314 313 316 302 296 301 298 297 335 292 236 208 188 198 217 198 191 193 206 219 195 199 218 225 229 237 247 241 215 260 244 264 194 167 187 110 220 180 242 193 184 184 189 182
312 309 306 304 293 322 283 328 357 291 251 288 160 162 183 202 212 214 185 212 233 232 226 233 222 231 230 241 255 235 213 286 250 169 53 215 154 178 179 196 204 180 186 189 179
310 303 294 285 272 277 300 317 196 229 295 257 154 161 178 179 198 225 183 193 216 207 236 222 238 246 234 204 234 187 151 274 348 351 225 253 259 195 195 187 194 207 184 191 182
308 309 292 274 276 275 217 235 232 238 238 283 316 202 183 190 196 223 190 193 220 234 217 220 240 235 236 200 194 202 166 156 195 199 242 246 233 239 184 192 193 204 201 196 184
316 315 296 272 231 216 162 218 208 241 256 260 281 279 207 194 177 204 211 196 205 223 226 208 240 252 221 168 170 225 182 191 187 237 317 231 172 22 167 197 195 207 213 202 193
324 322 292 249 189 167 186 239 231 244 270 284 283 289 288 206 193 191 222 194 199 215 226 250 215 235 214 173 238 158 152 218 343 221 286 279 243 193 148 155 166 187 200 209 207
322 313 315 181 186 171 219 227 236 257 273 277 282 289 289 309 197 196 214 194 198 205 224 235 216 256 178 192 190 127 165 169 171 155 193 267 259 218 149 155 164 175 170 200 208
346 272 156 169 176 210 236 250 258 268 272 279 276 270 277 316 311 228 216 195 192 202 223 225 198 239 210 182 174 196 178 164 127 271 222 150 262 155 151 159 140 161 161 153 172
317 273 219 208 220 243 253 245 259 260 263 274 280 264 274 279 309 297 306 216 192 194 222 216 230 244 289 200 185 198 214 173 151 126 238 126 250 198 144 150 146 142 159 165 179
298 289 251 249 245 252 269 279 270 253 260 268 278 297 315 299 273 279 290 285 205 196 210 205 220 172 205 204 171 198 209 176 162 149 223 205 165 195 61 124 126 133 145 177 192
249 273 350 314 305 324 307 297 275 281 270 276 276 295 293 295 301 273 276 336 320 193 200 203 200 196 213 245 269 208 196 210 207 209 164 224 155 179 154 166 141 126 141 171 202
301 350 329 297 288 280 275 282 261 266 272 291 337 217 250 300 4 341 353 23 255 305 188 187 189 126 112 357 242 249 198 212 236 216 244 238 220 194 188 171 170 167 181 186 221
312 343 320 290 304 310 308 316 286 256 274 312 317 299 286 28 309 316 305 290 279 298 211 137 129 103 160 359 337 326 273 229 247 213 207 226 220 132 118 121 143 131 122 144 246
Wind_Speed_850mb
38 40 41 42 43 42 39 42 42 42 42 45 48 49 47 43 39 43 49 36 22 24 31 24 24 31 28 40 37 18 4 8 28 31 9 45 39 42 60 66 34 28 69 59 63
39 40 41 42 43 43 41 40 43 45 46 45 46 46 44 41 41 53 46 33 34 30 25 26 24 28 50 41 57 17 9 9 41 23 31 40 30 18 22 55 58 65 58 58 68
39 40 42 42 42 44 44 41 42 46 47 45 41 40 34 31 37 32 12 35 39 33 30 24 33 54 54 60 47 29 22 44 26 37 54 32 12 8 26 28 67 72 66 58 63
41 41 42 44 43 43 45 43 42 44 47 44 41 37 31 21 7 10 8 28 31 29 26 31 32 50 25 26 15 20 38 46 38 74 56 20 27 10 46 22 67 69 65 53 50
43 43 43 44 44 44 43 46 42 43 47 42 43 36 28 17 45 9 8 22 29 34 34 36 42 47 25 17 11 17 20 51 60 64 59 51 22 15 23 40 64 63 56 52 45
45 45 44 44 46 44 44 45 46 44 48 42 40 34 20 16 5 19 11 26 35 37 37 40 41 42 49 36 14 18 28 41 54 57 54 45 25 21 16 40 60 59 54 50 47
45 45 46 45 46 46 44 44 47 46 47 41 32 29 24 47 5 21 19 31 37 36 36 37 38 43 50 20 25 17 17 26 27 57 41 66 24 19 48 50 48 50 49 47 46
45 46 46 47 47 46 44 43 49 48 48 37 23 22 22 1 18 25 13 16 39 30 31 29 33 48 50 40 10 11 15 12 19 27 37 31 21 26 44 44 45 43 46 45 47
48 45 47 46 48 49 44 43 50 50 50 27 13 19 28 7 33 28 30 29 35 34 41 39 44 47 35 11 7 11 11 26 10 13 15 13 29 40 51 49 46 47 47 46 42
48 49 46 46 46 50 44 43 51 39 16 11 16 13 36 30 38 38 32 39 36 35 41 45 37 8 10 4 13 14 10 28 21 20 16 21 18 34 56 54 49 50 50 49 41
51 50 49 44 43 47 44 44 19 9 21 25 23 34 64 27 34 39 40 44 47 44 17 37 6 13 24 23 24 20 21 18 12 20 13 16 34 36 51 49 43 45 52 53 46
54 54 51 45 41 41 38 31 40 32 45 54 61 69 72 54 32 41 48 48 41 17 17 13 18 26 33 35 21 20 21 25 25 26 17 20 33 33 27 37 62 52 55 58 55
51 55 54 48 42 30 27 26 45 46 27 72 74 66 68 54 40 45 53 57 17 19 23 21 20 37 40 34 24 23 15 29 24 25 19 20 8 4 12 38 49 63 62 59 62
52 50 53 53 27 18 30 33 25 28 7 22 24 56 62 62 23 49 57 50 17 29 28 22 31 41 40 35 21 15 12 12 24 40 18 21 11 10 26 25 33 57 66 63 70
51 48 45 44 47 36 33 33 20 21 9 15 23 22 53 56 28 39 61 61 27 21 18 27 33 37 39 32 16 16 17 13 13 9 11 23 10 24 27 23 15 39 64 69 81
51 47 45 37 48 26 16 15 11 4 16 15 28 25 35 39 41 31 63 59 46 24 27 24 45 30 30 25 22 13 5 10 14 3 1 14 15 11 28 34 38 44 67 71 81
57 48 47 46 43 15 29 15 2 11 16 12 31 41 40 19 37 37 41 37 32 21 22 25 40 32 34 16 18 9 8 5 5 3 12 16 13 18 42 39 43 46 68 73 91
61 53 46 45 34 27 5 2 13 24 47 33 36 18 34 33 32 38 34 33 37 32 12 18 25 37 29 19 21 16 18 11 11 8 15 20 12 9 42 63 68 65 79 68 82
64 51 47 29 20 27 10 11 13 26 35 38 38 30 23 39 22 36 29 37 36 39 28 19 26 26 24 11 20 20 11 18 9 10 7 8 11 13 35 31 43 63 58 59 67
63 55 41 19 28 31 7 14 19 45 46 42 43 41 41 39 38 40 37 41 37 42 36 26 14 28 19 25 24 22 15 5 6 4 10 10 4 9 16 18 26 26 49 69 85
41 23 34 35 43 21 10 15 27 55 54 39 49 53 46 14 36 27 39 37 46 42 46 38 15 28 22 17 18 4 9 7 13 11 10 5 7 10 19 19 22 23 39 55 91
15 8 31 44 13 14 16 16 41 40 56 47 46 43 42 15 17 23 32 38 58 43 44 45 11 23 28 16 25 17 17 18 11 8 3 11 9 18 22 19 29 31 39 32 30
28 20 31 35 10 17 20 39 50 39 42 46 48 38 30 16 15 20 21 36 58 47 45 29 26 20 12 17 25 30 18 17 13 8 8 7 5 4 15 14 37 37 44 41 36
15 8 19 36 38 22 27 33 37 53 44 54 47 23 27 16 20 23 30 27 56 47 77 35 14 17 14 18 21 21 27 17 17 10 12 13 14 11 13 11 28 34 27 31 36
11 9 20 10 14 32 28 29 45 43 44 40 30 16 31 26 26 19 26 14 32 59 39 28 16 15 16 14 7 18 12 17 16 16 15 14 19 22 22 15 24 25 15 16 31
13 13 21 35 32 25 25 30 38 44 33 24 36 26 37 13 9 12 21 12 11 8 32 14 13 9 3 5 10 12 29 29 33 25 14 16 14 25 51 48 28 30 27 16 10
20 23 17 22 14 17 20 45 30 38 36 40 31 10 15 14 21 24 38 37 19 6 9 18 12 9 9 2 12 12 9 11 16 29 31 25 17 12 18 17 27 27 16 5 12
Wind_Direction_850mb
342 341 342 343 342 342 341 337 336 336 331 323 314 308 302 298 292 284 271 259 235 239 260 274 255 257 254 246 226 181 127 121 174 240 319 104 123 138 128 138 159 198 143 148 149
338 338 337 338 338 338 338 336 334 334 332 327 319 311 299 297 292 278 269 247 219 226 249 263 266 268 250 243 223 152 248 141 181 149 106 100 94 90 108 114 111 121 136 146 150
335 334 333 334 335 334 334 333 332 332 333 329 324 324 309 302 304 288 268 216 213 220 237 248 261 279 276 272 260 176 212 117 150 122 110 108 118 197 81 121 138 137 144 150 152
330 331 331 330 331 332 330 330 330 329 331 327 321 325 312 295 266 6 228 182 204 209 230 232 254 269 267 273 242 82 94 111 129 114 112 123 132 114 138 122 137 141 149 155 160
326 326 327 327 328 328 327 325 326 325 327 325 318 316 306 271 248 293 17 185 195 205 216 221 252 261 261 289 128 103 103 104 110 119 127 134 117 115 126 107 137 144 151 157 163
324 323 323 324 325 325 324 323 321 321 324 322 316 310 285 256 289 234 242 213 208 208 215 220 244 260 271 285 105 117 127 123 123 114 107 97 118 100 172 138 138 147 158 163 166
321 322 320 320 321 322 321 320 316 318 320 318 311 306 265 248 247 216 259 225 209 212 216 228 254 273 281 303 117 156 116 123 103 118 118 112 98 107 132 136 143 154 164 170 171
321 321 320 318 319 318 318 317 311 313 314 308 302 299 266 111 219 225 228 216 195 207 230 244 262 269 280 299 148 136 131 123 142 121 150 116 141 136 142 148 156 166 174 178 176
321 320 319 318 317 316 316 316 308 310 308 286 278 284 269 275 204 195 211 214 194 204 228 250 264 270 291 293 249 159 198 129 131 168 149 109 144 155 166 166 167 181 178 170 168
321 319 318 318 318 314 315 315 307 310 309 281 214 289 249 220 203 206 205 204 205 218 235 242 261 233 284 275 204 189 220 152 151 201 166 128 155 164 173 172 182 187 167 165 173
320 318 317 317 319 315 315 324 324 322 313 258 275 223 291 278 202 205 201 205 204 221 211 233 219 239 242 247 253 201 183 127 221 209 139 152 151 170 178 173 180 175 168 170 176
319 317 316 316 316 310 304 300 299 298 305 287 277 261 268 263 218 194 193 202 208 206 203 227 217 241 245 250 228 240 156 181 223 182 125 168 162 176 154 176 178 184 181 182 185
318 316 316 315 316 300 276 314 330 310 285 283 258 257 252 250 205 188 199 194 194 212 212 215 214 236 244 256 240 245 177 208 166 178 154 125 161 127 224 195 202 184 186 194 186
316 316 317 317 313 269 281 319 317 352 301 264 221 229 239 239 195 194 200 204 197 207 221 218 235 228 240 251 228 245 270 283 161 148 176 178 196 203 206 238 201 179 183 192 180
314 314 313 316 302 296 301 298 297 335 292 236 208 188 198 217 198 191 193 206 219 195 199 218 225 229 237 247 241 215 260 244 264 194 167 187 110 220 180 242 193 184 184 189 182
312 309 306 304 293 322 283 328 357 291 251 288 160 162 183 202 212 214 185 212 233 232 226 233 222 231 230 241 255 235 213 286 250 169 53 215 154 178 179 196 204 180 186 189 179
310 303 294 285 272 277 300 317 196 229 295 257 154 161 178 179 198 225 183 193 216 207 236 222 238 246 234 204 234 187 151 274 348 351 225 253 259 195 195 187 194 207 184 191 182
308 309 292 274 276 275 217 235 232 238 238 283 316 202 183 190 196 223 190 193 220 234 217 220 240 235 236 200 194 202 166 156 195 199 242 246 233 239 184 192 193 204 201 196 184
316 315 296 272 231 216 162 218 208 241 256 260 281 279 207 194 177 204 211 196 205 223 226 208 240 252 221 168 170 225 182 191 187 237 317 231 172 22 167 197 195 207 213 202 193
324 322 292 249 189 167 186 239 231 244 270 284 283 289 288 206 193 191 222 194 199 215 226 250 215 235 214 173 238 158 152 218 343 221 286 279 243 193 148 155 166 187 200 209 207
322 313 315 181 186 171 219 227 236 257 273 277 282 289 289 309 197 196 214 194 198 205 224 235 216 256 178 192 190 127 165 169 171 155 193 267 259 218 149 155 164 175 170 200 208
346 272 156 169 176 210 236 250 258 268 272 279 276 270 277 316 311 228 216 195 192 202 223 225 198 239 210 182 174 196 178 164 127 271 222 150 262 155 151 159 140 161 161 153 172
317 273 219 208 220 243 253 245 259 260 263 274 280 264 274 279 309 297 306 216 192 194 222 216 230 244 289 200 185 198 214 173 151 126 238 126 250 198 144 150 146 142 159 165 179
298 289 251 249 245 252 269 279 270 253 260 268 278 297 315 299 273 279 290 285 205 196 210 205 220 172 205 204 171 198 209 176 162 149 223 205 165 195 61 124 126 133 145 177 192
249 273 350 314 305 324 307 297 275 281 270 276 276 295 293 295 301 273 276 336 320 193 200 203 200 196 213 245 269 208 196 210 207 209 164 224 155 179 154 166 141 126 141 171 202
301 350 329 297 288 280 275 282 261 266 272 291 337 217 250 300 4 341 353 23 255 305 188 187 189 126 112 357 242 249 198 212 236 216 244 238 220 194 188 171 170 167 181 186 221
312 343 320 290 304 310 308 316 286 256 274 312 317 299 286 28 309 316 305 290 279 298 211 137 129 103 160 359 337 326 273 229 247 213 207 226 220 132 118 121 143 131 122 144 246